Location: Sihaung
(22.8641°N, 94.0549°E)
Time: 16:24:19
(UTC+00:00)

Cosmos 1328 Rocket - Pass Details

Date: 03 March 2021
Orbit: 602 x 626 km, 82.5° (Epoch: 13 April)

Event Time Altitude Azimuth Distance (km) Brightness Sun altitude
Rises 23:39:46 0° 204° (SSW) 2,847 6.8 -6.1°
Reaches altitude 10° 23:42:09 10° 214° (SW) 1,944 5.8 -5.6°
Maximum altitude 23:46:00 32° 278° (W) 1,036 4.2 -4.7°
Drops below altitude 10° 23:49:52 10° 342° (NNW) 1,945 5.9 -3.8°
Sets 23:52:16 0° 352° (N) 2,850 6.8 -3.3°
